Weather History for KBML - January, 2004

Change the Weather History Date:

Tuesday, January 13, 2004

  Actual Average Record
Temperature  
Mean Temperature 5 °F -  
Max Temperature 21 °F 20 °F 55 °F (2005)
Min Temperature -13 °F 0 °F -20 °F (1999)
Degree Days  
Heating Degree Days 60    
Moisture  
Dew Point 1 °F    
Average Humidity 72    
Maximum Humidity 87    
Minimum Humidity 50    
Precipitation  
Precipitation 0.00 in - - ()
Sea Level Pressure  
Sea Level Pressure 29.67 in    
Wind  
Wind Speed 7 mph (NW)    
Max Wind Speed 24 mph    
Max Gust Speed 38 mph    
Visibility 3 miles    
Events Fog , Snow    
Averages and records for this station are not official NWS values.
T = Trace of Precipitation, MM = Missing Value Source: NWS Daily Summary

Daily Weather History Graph

Daily Weather History Graph

Search for Another Location

Airport or City:

Trip Planner

Search our weather history database for the weather conditions in past years. The results will help you decide how hot, cold, wet, or windy it might be!

Date:

Astronomy

Jan. 13, 2004 Rise Set
Actual Time 7:19 AM EST 4:27 PM EST
Civil Twilight 6:46 AM EST 5:00 PM EST
Nautical Twilight 6:10 AM EST 5:36 PM EST
Astronomical Twilight 5:35 AM EST 6:11 PM EST
Moon 11:00 PM EST (1/13) 10:39 AM EST (1/13)
Length of Visible Light 10h 13m
Length of Day
9h 08m
Waning Gibbous, 66% of the Moon is Illuminated
Jan 13
Waning Gibbous
Jan 14
Last Quarter
Jan 21
New
Jan 29
First Quarter
Feb 6
Full

Hourly Weather History & Observations

Time (EST) Temp. Windchill Dew Point Humidity Pressure Visibility Wind Dir Wind Speed Gust Speed Precip Events Conditions
12:52 AM 14.0 °F 5.1 °F 7.0 °F 74% 29.91 in 10.0 mi NNE 5.8 mph - N/A   Overcast
1:52 AM 12.9 °F 6.9 °F 6.1 °F 74% 29.89 in 10.0 mi North 3.5 mph - N/A   Overcast
2:27 AM 10.4 °F -1.5 °F 3.2 °F 73% 29.82 in 10.0 mi North 8.1 mph - N/A   Mostly Cloudy
2:52 AM 8.1 °F -0.5 °F 1.9 °F 76% 29.89 in 10.0 mi North 4.6 mph - N/A   Partly Cloudy
3:52 AM 7.0 °F - 1.9 °F 80% 29.86 in 10.0 mi Calm Calm - N/A   Overcast
4:52 AM 7.0 °F - 3.9 °F 87% 29.83 in 10.0 mi Calm Calm - N/A   Overcast
5:52 AM 8.1 °F -0.5 °F 1.9 °F 76% 29.80 in 10.0 mi NW 4.6 mph - N/A   Overcast
6:52 AM 8.1 °F 1.4 °F 1.9 °F 76% 29.78 in 10.0 mi NNW 3.5 mph - N/A   Overcast
7:52 AM 8.1 °F - 1.0 °F 73% 29.74 in 10.0 mi Calm Calm - N/A   Overcast
8:34 AM 8.6 °F - 1.4 °F 73% 29.65 in 1.8 mi Calm Calm - 0.00 in Snow Light Snow
8:36 AM 8.6 °F - 1.4 °F 73% 29.65 in 1.2 mi Calm Calm - 0.00 in Snow Light Snow
8:44 AM 8.6 °F - 1.4 °F 73% 29.64 in 0.8 mi Calm Calm - 0.00 in Snow Light Snow
8:52 AM 8.1 °F 1.4 °F 3.0 °F 80% 29.70 in 0.5 mi NNW 3.5 mph - 0.00 in Snow Snow
9:14 AM 8.6 °F 2.0 °F 3.2 °F 79% 29.63 in 0.5 mi NNW 3.5 mph - 0.00 in Fog , Snow Snow
9:21 AM 8.6 °F 2.0 °F 3.2 °F 79% 29.62 in 0.8 mi NNW 3.5 mph - 0.00 in Snow Light Snow
9:32 AM 8.6 °F - 5.0 °F 85% 29.60 in 1.2 mi Calm Calm - 0.00 in Snow Light Snow
9:45 AM 8.6 °F - 5.0 °F 85% 29.59 in 1.5 mi Calm Calm - 0.00 in Snow Light Snow
9:52 AM 9.0 °F - 5.0 °F 84% 29.65 in 1.0 mi Calm Calm - 0.00 in Snow Light Snow
10:08 AM 10.4 °F 4.0 °F 6.8 °F 85% 29.57 in 1.2 mi Variable 3.5 mph - 0.00 in Snow Light Snow
10:17 AM 10.4 °F 2.2 °F 6.8 °F 85% 29.56 in 0.8 mi NNW 4.6 mph - 0.00 in Snow Light Snow
10:43 AM 10.4 °F 2.2 °F 6.8 °F 85% 29.53 in 1.0 mi NNW 4.6 mph - 0.00 in Snow Light Snow
10:52 AM 10.9 °F 2.9 °F 7.0 °F 84% 29.59 in 1.0 mi NNW 4.6 mph - 0.00 in Snow Light Snow
10:58 AM 10.4 °F -0.4 °F 6.8 °F 85% 29.52 in 0.8 mi NNW 6.9 mph - 0.00 in Snow Light Snow
11:17 AM 12.2 °F 4.3 °F 8.6 °F 85% 29.50 in 1.0 mi NNW 4.6 mph - 0.00 in Snow Light Snow
11:28 AM 12.2 °F 2.9 °F 8.6 °F 85% 29.49 in 0.8 mi NW 5.8 mph - 0.00 in Snow Light Snow
11:52 AM 12.9 °F 3.8 °F 9.0 °F 84% 29.55 in 0.8 mi NW 5.8 mph - 0.00 in Snow Light Snow
12:17 PM 14.0 °F 8.2 °F 10.4 °F 86% 29.48 in 0.2 mi NW 3.5 mph - 0.00 in Fog , Snow Snow
12:21 PM 14.0 °F - 10.4 °F 86% 29.48 in 0.5 mi Calm Calm - 0.00 in Fog , Snow Snow
12:31 PM 15.8 °F 10.2 °F 10.4 °F 79% 29.47 in 1.0 mi NNW 3.5 mph - 0.00 in Snow Light Snow
12:52 PM 16.0 °F 8.8 °F 12.0 °F 84% 29.55 in 0.8 mi NNW 4.6 mph - 0.00 in Snow Light Snow
1:11 PM 19.4 °F 10.4 °F 15.8 °F 86% 29.48 in 1.0 mi Variable 6.9 mph - 0.00 in Snow Light Snow
1:18 PM 19.4 °F 14.3 °F 15.8 °F 86% 29.49 in 2.0 mi Variable 3.5 mph - 0.00 in Snow Light Snow
1:23 PM 21.2 °F 10.1 °F 15.8 °F 80% 29.49 in 2.0 mi WNW 10.4 mph 18.4 mph 0.00 in Snow Light Snow
1:33 PM 21.2 °F 10.9 °F 15.8 °F 80% 29.50 in 1.2 mi WNW 9.2 mph 24.2 mph 0.00 in Snow Light Snow
1:42 PM 21.2 °F 7.3 °F 14.0 °F 74% 29.51 in 0.5 mi West 16.1 mph 25.3 mph 0.00 in Snow Snow
1:52 PM 19.9 °F 5.7 °F 12.0 °F 71% 29.57 in 0.5 mi WNW 16.1 mph 24.2 mph 0.00 in Snow Snow
2:03 PM 19.4 °F 7.9 °F 8.6 °F 63% 29.52 in 1.5 mi WNW 10.4 mph 23.0 mph 0.00 in Snow Light Snow
2:06 PM 19.4 °F 4.1 °F 8.6 °F 63% 29.53 in 1.2 mi WNW 18.4 mph 27.6 mph 0.00 in Snow Light Snow
2:13 PM 17.6 °F 2.7 °F 5.0 °F 58% 29.54 in 1.5 mi WNW 16.1 mph 27.6 mph 0.00 in Snow Light Snow
2:16 PM 17.6 °F 2.2 °F 5.0 °F 58% 29.54 in 2.0 mi WNW 17.3 mph 27.6 mph 0.00 in Snow Light Snow
2:32 PM 15.8 °F 0.9 °F 6.8 °F 68% 29.56 in 6.0 mi West 15.0 mph 21.9 mph 0.00 in Snow Light Snow
2:52 PM 14.0 °F 2.0 °F 3.0 °F 62% 29.66 in 9.0 mi West 9.2 mph 20.7 mph 0.00 in   Overcast
3:42 PM 10.4 °F -4.8 °F 1.4 °F 67% 29.61 in 2.5 mi West 12.7 mph 19.6 mph 0.00 in Snow Light Snow
3:45 PM 10.4 °F -5.4 °F 3.2 °F 73% 29.61 in 1.2 mi West 13.8 mph 20.7 mph 0.00 in Snow Light Snow
3:52 PM 10.9 °F -0.8 °F 3.9 °F 73% 29.70 in 0.8 mi WNW 8.1 mph 20.7 mph 0.00 in Snow Light Snow
3:57 PM 10.4 °F -2.4 °F 3.2 °F 73% 29.62 in 1.0 mi WNW 9.2 mph 17.3 mph 0.00 in Snow Light Snow
4:14 PM 10.4 °F -5.4 °F -0.4 °F 62% 29.62 in 2.0 mi WNW 13.8 mph 27.6 mph 0.00 in Snow Light Snow
4:21 PM 10.4 °F -6.6 °F -0.4 °F 62% 29.62 in 1.2 mi WNW 16.1 mph 25.3 mph 0.00 in Snow Light Snow
4:30 PM 8.6 °F -8.9 °F 1.4 °F 73% 29.63 in 0.5 mi WNW 16.1 mph 28.8 mph 0.00 in Snow Snow
4:45 PM 8.6 °F -8.9 °F 1.4 °F 73% 29.64 in 0.8 mi WNW 16.1 mph 25.3 mph 0.00 in Snow Light Snow
4:52 PM 8.1 °F -10.2 °F 3.0 °F 80% 29.72 in 0.2 mi West 17.3 mph 28.8 mph 0.00 in Snow Heavy Snow
4:59 PM 6.8 °F -11.3 °F 1.4 °F 79% 29.65 in 0.2 mi WNW 16.1 mph 28.8 mph 0.00 in Snow Heavy Snow
5:02 PM 6.8 °F -10.7 °F 1.4 °F 79% 29.65 in 0.5 mi West 15.0 mph 26.5 mph 0.00 in Snow Snow
5:12 PM 6.8 °F -10.0 °F -2.2 °F 67% 29.66 in 1.5 mi WNW 13.8 mph 26.5 mph 0.00 in Snow Light Snow
5:15 PM 6.8 °F -11.3 °F -5.8 °F 56% 29.67 in 2.5 mi WNW 16.1 mph 26.5 mph 0.00 in   Scattered Clouds
5:23 PM 5.0 °F -12.3 °F -7.6 °F 56% 29.68 in 4.0 mi WNW 13.8 mph 26.5 mph 0.00 in   Haze
5:44 PM 3.2 °F -19.5 °F -7.6 °F 61% 29.69 in 2.0 mi West 24.2 mph 29.9 mph 0.00 in Snow Light Snow
5:52 PM 3.0 °F -16.1 °F -9.0 °F 57% 29.79 in 1.5 mi WNW 16.1 mph 33.4 mph 0.00 in Snow Light Snow
5:59 PM 1.4 °F -18.2 °F -9.4 °F 61% 29.71 in 3.0 mi West 16.1 mph 25.3 mph 0.00 in   Mostly Cloudy
6:52 PM -0.9 °F -21.9 °F -11.0 °F 62% 29.83 in 2.0 mi WNW 17.3 mph 27.6 mph 0.00 in   Overcast
7:23 PM -2.2 °F -23.5 °F -11.2 °F 66% 29.75 in 1.5 mi WNW 17.3 mph 38.0 mph 0.00 in Snow Light Snow
7:37 PM -2.2 °F -20.7 °F -9.4 °F 71% 29.75 in 1.0 mi WNW 12.7 mph 23.0 mph 0.00 in   Haze
7:44 PM -2.2 °F -21.5 °F -7.6 °F 78% 29.75 in 0.5 mi NW 13.8 mph 21.9 mph 0.00 in Snow Snow
7:52 PM -2.9 °F -23.1 °F -8.0 °F 79% 29.85 in 0.5 mi NW 15.0 mph 21.9 mph 0.00 in Snow Snow
8:01 PM -4.0 °F -24.5 °F -13.0 °F 65% 29.77 in 1.2 mi NW 15.0 mph 27.6 mph 0.00 in   Overcast
8:06 PM -4.0 °F -24.5 °F -14.8 °F 60% 29.78 in 2.0 mi NW 15.0 mph 27.6 mph 0.00 in   Overcast
8:08 PM -4.0 °F -24.5 °F -14.8 °F 60% 29.78 in 3.0 mi NW 15.0 mph 23.0 mph 0.00 in   Overcast
8:22 PM -5.8 °F -28.8 °F -16.6 °F 60% 29.79 in 2.0 mi NW 18.4 mph 27.6 mph 0.00 in   Overcast
8:45 PM -7.6 °F -27.5 °F -20.2 °F 54% 29.80 in 3.0 mi NW 12.7 mph 28.8 mph 0.00 in   Mostly Cloudy
8:52 PM -7.1 °F -30.4 °F -20.9 °F 51% 29.90 in 4.0 mi WNW 18.4 mph 26.5 mph 0.00 in   Mostly Cloudy
9:52 PM -9.0 °F -29.3 °F -20.9 °F 56% 29.93 in 7.0 mi NW 12.7 mph 20.7 mph 0.00 in   Mostly Cloudy
10:52 PM -11.0 °F -29.9 °F -24.0 °F 53% 29.96 in 9.0 mi NW 10.4 mph 18.4 mph N/A   Overcast
11:52 PM -13.0 °F -31.3 °F -27.0 °F 50% 29.97 in 10.0 mi NW 9.2 mph 17.3 mph 0.00 in   Overcast